KE7JL Weather Reports


time (UTC)temp
C
wind
direction
speed
KPH
gust
KPH
rain 1hr
cm
rain 24hr
cm
rain mn
cm
humidity
%
barometer
mb
20260505153328 13 190 0.0 0.0 0.00 0.00 0.00 89 1014.8
20260505150347 13 200 0.0 0.0 0.00 0.00 0.00 89 1014.7
20260505140349 13 196 0.0 0.0 0.00 0.00 0.00 89 1014.1
20260505123335 13 165 0.0 0.0 0.00 0.00 0.00 89 1013.2
20260505120355 13 188 0.0 0.0 0.00 0.00 0.00 90 1013.1
20260505113336 13 182 0.0 0.0 0.00 0.00 0.00 90 1013.0
20260505110413 13 188 0.0 0.0 0.00 0.00 0.00 90 1012.9
20260505100355 13 186 0.0 0.0 0.00 0.00 0.00 91 1012.4
20260505093404 13 171 0.0 0.0 0.00 0.00 0.00 90 1012.2
20260505090358 14 189 0.0 0.0 0.00 0.00 0.00 90 1012.0
20260505083337 14 173 0.0 0.0 0.00 0.00 0.00 90 1011.8
20260505080355 14 152 0.0 0.0 0.00 0.00 0.00 89 1011.7
20260505073343 15 181 0.0 0.0 0.00 0.00 0.00 87 1011.4
20260505070423 15 142 0.0 0.0 0.00 0.00 0.00 85 1011.0
20260505063345 16 186 0.0 0.0 0.00 0.00 0.00 84 1010.7
20260505060404 16 196 0.0 0.0 0.00 0.00 0.00 83 1010.3
20260505053328 17 198 0.0 0.0 0.00 0.00 0.00 82 1010.0
20260505050409 18 158 0.0 0.0 0.00 0.00 0.00 78 1009.7
20260505040402 20 180 0.0 0.0 0.00 0.00 0.00 75 1008.9
20260505033345 21 182 0.0 0.0 0.00 0.00 0.00 66 1008.4
20260505030356 21 189 0.0 0.0 0.00 0.00 0.00 70 1008.0
20260505023329 21 207 0.0 0.0 0.00 0.00 0.00 72 1007.6
20260505020406 23 185 0.0 0.0 0.00 0.00 0.00 57 1007.6
20260505013328 24 182 0.0 0.0 0.00 0.00 0.00 50 1007.7
20260505010402 25 179 0.0 0.0 0.00 0.00 0.00 47 1007.8
20260505003343 25 184 0.0 0.0 0.00 0.00 0.00 41 1007.8
20260505000354 25 189 0.0 0.0 0.00 0.00 0.00 41 1008.0
20260504233345 25 186 0.0 0.0 0.00 0.00 0.00 38 1008.1
20260504230405 25 184 0.0 0.0 0.00 0.00 0.00 40 1008.2
20260504223350 24 187 0.0 0.0 0.00 0.00 0.00 45 1008.5
20260504220347 23 188 0.0 0.0 0.00 0.00 0.00 47 1009.0
20260504213335 23 185 0.0 0.0 0.00 0.00 0.00 52 1009.1
20260504210426 23 184 0.0 0.0 0.00 0.00 0.00 57 1009.2
20260504203342 21 189 0.0 0.0 0.00 0.00 0.00 64 1009.4
20260504200418 22 189 0.0 0.0 0.00 0.00 0.00 55 1009.5
20260504193344 21 189 0.0 0.0 0.00 0.00 0.00 54 1009.5
20260504190357 21 189 0.0 0.0 0.00 0.00 0.00 59 1009.8
20260504183339 20 189 0.0 0.0 0.00 0.00 0.00 61 1009.9
20260504180357 19 192 0.0 0.0 0.00 0.00 0.00 65 1009.9
20260504173338 17 10 0.0 0.0 0.00 0.00 0.00 78 1010.0
20260504170352 16 10 0.0 0.0 0.00 0.00 0.00 82 1010.1
20260504160352 14 10 0.0 0.0 0.00 0.00 0.00 88 1009.9